Zurück zum Katalog

STARLINK-35665

AktivKommunikationVLEO
NORAD 66390·PAYLOAD·🇺🇸 United States

Gestartet Nov 8, 2025 von Cape Canaveral Space Force Station

Loading…

Nächste Überflüge (nächste 24 Stunden)

TLE

AktuellSource: CelesTrak SupGP

Epoche: Sep 14, 2026, 14:41 UTC

1 66390C 25257L   26257.61229167 -.00041032  00000+0 -12122-2 0  2579
2 66390  53.1582  56.8885 0001048  86.1682 321.7212 15.34414518    19

Verfolge STARLINK-35665 in Echtzeit mit AllMySat

Download on the App Store